Simultaneous Nadir Overpasses (SNOs) Predictions

Prediction of SNOs over PacNW region [( 10.00, 139.50) to ( 22.70, 165.60)] between AQUA and NPP Satellites:

Table of predicted SNOs over PacNW region for the next 30.0 days since TLE Epoch: 10/9/2018
Index Date (AQUA) Time (AQUA) AQUA Lat,Lon Date (NPP) Time (NPP) NPP Lat,Lon Distance(km) Time Diff (sec)
1 10/10/2018 15:59:26 22.59, 147.44 10/10/2018 16:02:13 23.21, 144.56 302.94 167
2 10/18/2018 15:09:57 22.59, 159.81 10/18/2018 15:11:21 23.19, 157.26 269.68 84
3 10/21/2018 03:31:47 22.69, 147.49 10/21/2018 03:28:17 25.22, 145.16 367.77 210
4 10/26/2018 15:59:19 22.63, 147.46 10/26/2018 16:01:54 23.26, 144.61 300.58 155
5 11/03/2018 15:09:48 22.63, 159.84 11/03/2018 15:10:57 23.19, 157.32 265.81 69




NCC Satellite Simultaneous Nadir Overpasses (SNOs) Prediction Service
